This demonstration page uses our WeatherBlox Daily Observations layout. Learn more.

Left ArrowRight Arrow

34.16533, -84.80231

Hourly Observations for July 12, 2016

Temp ( °F °C ) Dew Point ( °F °C ) Humidity (%) Winds ( mph kmh ) Pressure ( in mb ) Visibility ( mi km ) Precip ( " mm )
12:53 am 00:53 Clear 71 21.7 70 21.1 96 96 Calm 30.06 1018 10 16 0.00 0.00
1:53 am 01:53 Clear 71 21.7 69 20.6 94 94 Calm 30.06 1018 10 16 0.00 0.00
2:53 am 02:53 Mostly Clear 69 20.6 68 20 96 96 Calm 30.06 1018 10 16 0.00 0.00
3:53 am 03:53 Clear 68 20 67 19.4 96 96 Calm 30.06 1018 9 14 0.00 0.00
4:53 am 04:53 Clear 67 19.4 67 19.4 100 100 Calm 30.06 1018 10 16 0.00 0.00
5:53 am 05:53 Clear 68 20 67 19.4 96 96 Calm 30.06 1018 10 16 0.00 0.00
6:53 am 06:53 Sunny 67 19.4 66 18.9 97 97 Calm 30.09 1019 10 16 0.00 0.00
7:53 am 07:53 Sunny 71 21.7 68 20 90 90 Calm 30.10 1019 10 16 0.00 0.00
8:53 am 08:53 Sunny 74 23.3 70 21.1 88 88 VRB 3 6 30.12 1020 10 16 0.00 0.00
9:53 am 09:53 Sunny 76 24.4 71 21.7 85 85 Calm 30.12 1020 10 16 0.00 0.00
10:53 am 10:53 Mostly Sunny 79 26.1 72 22.2 79 79 VRB 3 6 30.13 1020 10 16 0.00 0.00
11:53 am 11:53 Sunny 82 27.8 72 22.2 72 72 VRB 3 6 30.13 1020 10 16 0.00 0.00
12:53 pm 12:53 Mostly Sunny 86 30 72 22.2 63 63 VRB 5 7 30.13 1020 10 16 0.00 0.00
1:53 pm 13:53 Sunny 87 30.6 71 21.7 59 59 VRB 5 7 30.11 1020 10 16 0.00 0.00
2:53 pm 14:53 Sunny 90 32.2 68 20 48 48 VRB 3 6 30.09 1019 10 16 0.00 0.00
3:53 pm 15:53 Sunny 91 32.8 66 18.9 44 44 Calm 30.06 1018 10 16 0.00 0.00
4:53 pm 16:53 Sunny 90 32.2 66 18.9 45 45 VRB 3 6 30.04 1017 10 16 0.00 0.00
5:53 pm 17:53 Sunny 91 32.8 65 18.3 42 42 Calm 30.04 1017 10 16 0.00 0.00
6:53 pm 18:53 Sunny 89 31.7 66 18.9 47 47 VRB 3 6 30.05 1018 10 16 0.00 0.00
7:53 pm 19:53 Sunny 86 30 68 20 55 55 VRB 5 7 30.06 1018 10 16 0.00 0.00
8:53 pm 20:53 Clear 81 27.2 65 18.3 58 58 VRB 6 9 30.09 1019 10 16 0.00 0.00
9:53 pm 21:53 Clear 76 24.4 68 20 77 77 Calm 30.09 1019 10 16 0.00 0.00
10:53 pm 22:53 Clear 75 23.9 68 20 79 79 NNE 3 6 30.07 1018 10 16 0.00 0.00
11:53 pm 23:53 Clear 74 23.3 68 20 82 82 Calm 30.08 1019 10 16 0.00 0.00

Powered by AerisWeather